[[{"header":{"parameterUnit":"m.s-1","parameterCategory":1,"la1":30.2991,"la2":30.254,"lo1":-89.0895,"lo2":-89.0444,"dy":0.0017,"dx":0.0017,"nx":28,"ny":28,"refTime":"2025-03-18T21:00:00:Z","depth":0,"parameterNumber":2,"parameterNumberName":"U-component_of_WINDS"},"data":[0,0,0,0,0,0,0,0,0,0,0,0,0,0,0,0,0,0,0,0,0,0,0,0,0,0,0,0,0,0,0,0,0,0,0,0,0,0,0,0,0,0,0,0,0,0,0,0,0,0,0,0,0,0,0,0,0,0,0.2224,0.2224,0,0.2212,0.2211,0.2211,0.2182,0.2182,0.2181,0.2181,0.2168,0.2168,0.2168,0,0,0,0,0,0,0,0,0,0,0,0,0,0.2223,0.2224,0.2225,0.2224,0.2224,0.2212,0.2211,0.2211,0.2183,0.2182,0.2181,0.218,0.2168,0.2168,0.2168,0,0,0,0,0,0,0,0,0,0,0,0,0,0.2219,0.2224,0.2225,0.2208,0.2207,0.2212,0.2211,0.2211,0.2183,0.2182,0.2181,0.218,0.2168,0.2168,0.2168,0.2188,0,0,0.2169,0.2169,0,0,0,0,0,0,0,0,0.2219,0.2219,0.2211,0.2209,0.2208,0.2198,0.2206,0.2204,0.2183,0.2192,0.2181,0.218,0.2179,0.2178,0.2177,0.2187,0.2187,0.2169,0.217,0.217,0.217,0,0,0,0,0,0,0,0.2219,0.2219,0.2219,0.2211,0.2209,0.2201,0.22,0.2206,0.219,0.2191,0.2189,0.2188,0.2178,0.2177,0.2177,0.2187,0.2169,0.217,0.217,0.217,0.2211,0.2211,0,0,0,0,0,0,0.2222,0.2219,0.222,0.2219,0.2211,0.2202,0.22,0.2202,0.219,0.2188,0.2189,0.2186,0.2177,0.2177,0.2176,0.2197,0.217,0.217,0.217,0.221,0.2211,0.2212,0,0,0,0,0,0,0.2222,0.2222,0.222,0.2219,0.2218,0.2203,0.2205,0.2202,0.2202,0.2188,0.2185,0.2191,0.2176,0.2176,0.2185,0.2197,0.217,0.217,0.2209,0.221,0.2211,0.2241,0,0,0,0,0,0,0.2222,0.2222,0.223,0.2219,0.2218,0.2229,0.2206,0.2202,0.2202,0.2199,0.219,0.2188,0.2176,0.2185,0.2185,0.2197,0.2171,0.2207,0.2209,0.2211,0.2239,0.2243,0.2246,0,0,0,0,0,0.2222,0.2239,0.2231,0.2231,0.2227,0.223,0.223,0.2216,0.2203,0.2211,0.2202,0.2188,0.2195,0.2186,0.2186,0.2198,0.2207,0.2209,0.2211,0.2237,0.2242,0.2246,0,0,0,0,0,0,0.2253,0.2238,0.2228,0.2242,0.2238,0.2225,0.2234,0.2222,0.2221,0.2218,0.2201,0.2199,0.221,0.2205,0.2195,0.2216,0.2199,0.2201,0.2218,0.2223,0.2227,0.2228,0.2171,0,0,0,0,0,0.2261,0.2265,0.2251,0.2265,0.2263,0.2249,0.225,0.2239,0.2234,0.2232,0.2224,0.2219,0.222,0.2222,0.2222,0.2238,0.2235,0.2246,0.225,0.2253,0.2255,0.2262,0.2266,0.2218,0.2218,0.2218,0,0,0.2278,0.227,0.2274,0.2271,0.2266,0.227,0.2248,0.2253,0.2255,0.2233,0.224,0.2234,0.2228,0.224,0.2245,0.2236,0.2268,0.2256,0.2259,0.2259,0.2264,0.2269,0.2273,0.222,0.2219,0.2219,0,0,0.2311,0.2306,0.2316,0.2312,0.2305,0.2295,0.2298,0.2287,0.2282,0.2289,0.2272,0.2275,0.2277,0.2273,0.2271,0.2301,0.2288,0.2302,0.2323,0.2329,0.2333,0.2336,0.2346,0.2349,0.2304,0.2304,0.2304,0,0.2334,0.2339,0.2323,0.2329,0.2328,0.2307,0.2317,0.2313,0.2307,0.2306,0.2296,0.2298,0.2293,0.2303,0.231,0.231,0.2311,0.2303,0.2334,0.2337,0.2339,0.2348,0.2352,0.2306,0.2306,0.2306,0.2305,0,0.2366,0.237,0.2379,0.2372,0.2372,0.238,0.2365,0.2367,0.2356,0.2347,0.2354,0.2346,0.2344,0.2346,0.2336,0.2354,0.2349,0.2337,0.2319,0.2346,0.2354,0.2357,0.2308,0.2308,0.2307,0.2307,0,0,0.2418,0.2402,0.2406,0.2402,0.2392,0.2394,0.2401,0.2398,0.2399,0.2396,0.24,0.2402,0.239,0.2388,0.2378,0.2383,0.2406,0.237,0.237,0.2376,0.2424,0.2433,0.2437,0.2397,0.2398,0.2399,0.2425,0,0.2448,0.2458,0.2444,0.2457,0.2459,0.2439,0.2444,0.2439,0.2431,0.2431,0.2422,0.2424,0.2409,0.2407,0.2412,0.2402,0.2415,0.24,0.2401,0.2401,0.2402,0.2442,0.2451,0.2476,0.2428,0.2428,0.2429,0,0.2484,0.2481,0.2494,0.2482,0.2483,0.2488,0.2484,0.2485,0.2478,0.2472,0.2469,0.2456,0.246,0.2444,0.245,0.244,0.2439,0.2435,0.2435,0.2434,0.2416,0.2441,0.2484,0.2487,0.2434,0.2433,0.2433,0,0.2519,0.2519,0.2526,0.2524,0.251,0.2514,0.2509,0.2501,0.25,0.2496,0.2495,0.2493,0.2491,0.2489,0.2475,0.2465,0.2482,0.2465,0.2476,0.2477,0.2481,0.248,0.2523,0.2482,0.2482,0.2482,0.2482,0,0.2554,0.2562,0.2541,0.2546,0.2554,0.2538,0.2547,0.2539,0.2532,0.2534,0.2517,0.252,0.2502,0.2502,0.2492,0.2497,0.2497,0.2492,0.2488,0.2493,0.2493,0.2491,0.2489,0.2483,0.2482,0.2482,0.2482,0,0.2594,0.2581,0.2587,0.2574,0.257,0.2577,0.2565,0.2569,0.2559,0.2562,0.2562,0.2547,0.2546,0.2532,0.2529,0.2522,0.2532,0.2526,0.2534,0.2532,0.2544,0.2542,0.2586,0.259,0.2547,0.2548,0.2548,0,0.2616,0.2622,0.2609,0.2609,0.2604,0.2605,0.2604,0.2587,0.2587,0.2578,0.2582,0.258,0.2578,0.2578,0.2566,0.2564,0.2557,0.2572,0.2556,0.256,0.2556,0.2555,0.2555,0.2576,0.2576,0.2577,0.2577,0,0.2657,0.265,0.2648,0.2644,0.2643,0.2639,0.2634,0.2635,0.2617,0.2617,0.2616,0.2614,0.261,0.2608,0.2603,0.2597,0.2584,0.2582,0.2584,0.2588,0.2592,0.2589,0.2542,0.2581,0.2581,0.258,0.258,0.258,0.2688,0.2692,0.2683,0.2681,0.2676,0.2671,0.2673,0.2664,0.2662,0.2658,0.2648,0.2648,0.264,0.2632,0.2627,0.2627,0.2619,0.2622,0.2623,0.2624,0.2626,0.2593,0.2626,0.2626,0.2626,0.2625,0.2625,0,0.2726,0.2719,0.2718,0.2712,0.271,0.2698,0.2691,0.2691,0.2691,0.2685,0.2682,0.268,0.2678,0.2666,0.2663,0.2665,0.2658,0.2664,0.2663,0.2662,0.2634,0.2632,0.2669,0.2669,0.2669,0.2669,0.2669,0.2669,0.2746,0.2751,0.2743,0.2745,0.2738,0.2738,0.2735,0.273,0.2725,0.2724,0.2721,0.2714,0.2705,0.27,0.2697,0.2693,0.2692,0.27,0.2695,0.2668,0.2664,0.266,0.2658,0.27,0.27,0.2723,0.2723,0.2723]},{"header":{"parameterUnit":"m.s-1","parameterCategory":1,"la1":30.2991,"la2":30.254,"lo1":-89.0895,"lo2":-89.0444,"dy":0.0017,"dx":0.0017,"nx":28,"ny":28,"refTime":"2025-03-18T21:00:00:Z","depth":0,"parameterNumber":3,"parameterNumberName":"V-component_of_WINDS"},"data":[0,0,0,0,0,0,0,0,0,0,0,0,0,0,0,0,0,0,0,0,0,0,0,0,0,0,0,0,0,0,0,0,0,0,0,0,0,0,0,0,0,0,0,0,0,0,0,0,0,0,0,0,0,0,0,0,0,0,7.6953,7.6954,0,7.7047,7.7048,7.7049,7.6977,7.6974,7.6971,7.6968,7.7059,7.7064,7.7069,0,0,0,0,0,0,0,0,0,0,0,0,0,7.6706,7.6711,7.6953,7.6954,7.6955,7.7046,7.7048,7.7049,7.6978,7.6974,7.697,7.6967,7.7057,7.7063,7.707,0,0,0,0,0,0,0,0,0,0,0,0,0,7.6808,7.6713,7.6952,7.6931,7.693,7.7046,7.7048,7.7049,7.6979,7.6974,7.6969,7.6965,7.7055,7.7063,7.7071,7.7212,0,0,7.7095,7.7098,0,0,0,0,0,0,0,0,7.6802,7.6817,7.6933,7.6932,7.6932,7.6996,7.6994,7.7103,7.698,7.696,7.6968,7.6963,7.7041,7.705,7.7077,7.7216,7.722,7.7095,7.71,7.7104,7.7106,0,0,0,0,0,0,0,7.6795,7.6813,7.699,7.6934,7.6934,7.6914,7.6924,7.7014,7.7025,7.6961,7.6956,7.6969,7.704,7.707,7.7079,7.7221,7.7095,7.7102,7.7107,7.711,7.7479,7.7483,0,0,0,0,0,0,7.6791,7.6807,7.6987,7.6992,7.6854,7.6923,7.6933,7.698,7.7024,7.7026,7.6973,7.6965,7.7059,7.707,7.7082,7.7249,7.7104,7.7111,7.7116,7.7474,7.748,7.7485,0,0,0,0,0,0,7.6786,7.6808,7.6983,7.6899,7.6919,7.6932,7.6985,7.6984,7.7014,7.7033,7.7033,7.7002,7.7056,7.7071,7.718,7.7251,7.7115,7.7122,7.7468,7.7475,7.7482,7.7585,0,0,0,0,0,0,7.6779,7.6807,7.6862,7.6901,7.6924,7.7081,7.6989,7.6989,7.7028,7.702,7.706,7.7062,7.7053,7.7169,7.7188,7.726,7.7128,7.7461,7.7471,7.748,7.7576,7.7595,7.7613,0,0,0,0,0,7.6771,7.6886,7.6865,7.6887,7.6994,7.7086,7.7099,7.7088,7.7035,7.7089,7.7101,7.7061,7.7241,7.718,7.7202,7.7277,7.7457,7.7468,7.7479,7.7567,7.7592,7.7612,0,0,0,0,0,0,7.6853,7.689,7.6868,7.6999,7.704,7.7073,7.7142,7.7114,7.7169,7.7158,7.714,7.715,7.7264,7.7281,7.7214,7.7415,7.734,7.7356,7.74,7.7423,7.7441,7.7434,7.7134,0,0,0,0,0,7.6887,7.696,7.6988,7.7101,7.7123,7.7129,7.7169,7.7157,7.7198,7.7214,7.7234,7.7273,7.7338,7.7382,7.7443,7.7578,7.7585,7.764,7.7659,7.7674,7.7687,7.7759,7.7783,7.7522,7.7522,7.7522,0,0,7.6956,7.6986,7.7033,7.7118,7.7149,7.7223,7.7144,7.7226,7.7281,7.7226,7.733,7.7347,7.7389,7.7512,7.7567,7.753,7.7761,7.7688,7.77,7.7705,7.7773,7.7798,7.782,7.753,7.7529,7.7527,0,0,7.7121,7.7152,7.7249,7.7281,7.7329,7.7332,7.7356,7.7394,7.7403,7.7509,7.7469,7.7532,7.7645,7.7677,7.7708,7.7886,7.7851,7.7907,7.8002,7.8072,7.8093,7.8111,7.8173,7.8196,7.792,7.7921,7.7921,0,7.7201,7.7314,7.7302,7.7388,7.7426,7.7381,7.7478,7.751,7.7574,7.7601,7.7559,7.77,7.7726,7.7855,7.7898,7.7925,7.795,7.7901,7.8091,7.8109,7.8126,7.8185,7.8208,7.7927,7.7926,7.7926,7.7925,0,7.7409,7.7488,7.756,7.7626,7.7672,7.7763,7.7763,7.7811,7.7795,7.7802,7.7909,7.7939,7.8005,7.8035,7.8019,7.8162,7.8137,7.8094,7.8018,7.8157,7.8212,7.8235,7.7936,7.7934,7.7932,7.793,0,0,7.7627,7.7685,7.7712,7.7741,7.7791,7.785,7.7938,7.8005,7.8046,7.8092,7.8164,7.8261,7.8222,7.8257,7.8245,7.8307,7.8444,7.8255,7.8256,7.8288,7.8601,7.8632,7.8659,7.8422,7.8426,7.8429,7.8597,0,7.7793,7.7949,7.7941,7.8086,7.8158,7.8117,7.8194,7.8232,7.8241,7.8302,7.8311,7.838,7.8323,7.8344,7.8403,7.8415,7.8506,7.8403,7.8487,7.849,7.8476,7.8688,7.8721,7.8878,7.8618,7.8622,7.8625,0,7.8008,7.8063,7.8216,7.8255,7.8284,7.8354,7.8414,7.8473,7.8514,7.8517,7.8557,7.8535,7.8622,7.8545,7.8664,7.8594,7.8628,7.8639,7.8645,7.8651,7.8565,7.8698,7.8928,7.8951,7.8659,7.8656,7.8653,0,7.8149,7.8262,7.8368,7.8394,7.8442,7.8492,7.8514,7.8551,7.8591,7.8643,7.8669,7.873,7.8763,7.881,7.8804,7.8749,7.8925,7.8848,7.8927,7.8928,7.8965,7.8962,7.9202,7.899,7.8989,7.8989,7.8988,0,7.8335,7.843,7.8433,7.8498,7.8602,7.8592,7.8695,7.8711,7.8745,7.8811,7.8779,7.8841,7.883,7.8892,7.8888,7.8986,7.9002,7.9005,7.9002,7.9007,7.9006,7.9028,7.9016,7.8995,7.8994,7.8993,7.8992,0,7.8511,7.8517,7.8629,7.8666,7.8678,7.8753,7.8783,7.8844,7.8851,7.8935,7.8954,7.8965,7.9036,7.9035,7.9116,7.9113,7.9233,7.9219,7.922,7.9217,7.9296,7.9288,7.9556,7.959,7.9357,7.936,7.9361,0,7.8628,7.87,7.8746,7.8789,7.8814,7.8884,7.8925,7.8917,7.8961,7.9014,7.9068,7.9137,7.9191,7.9307,7.932,7.9381,7.9367,7.9457,7.9376,7.9378,7.9367,7.9362,7.9369,7.9472,7.9475,7.9477,7.9479,0,7.8835,7.8835,7.8897,7.8961,7.9012,7.9061,7.9106,7.9142,7.9139,7.919,7.9263,7.9306,7.9389,7.9457,7.9516,7.9536,7.9507,7.9505,7.9526,7.9531,7.9528,7.9529,7.9262,7.9498,7.9496,7.9495,7.9494,7.9493,7.8984,7.9046,7.9088,7.9158,7.9192,7.9235,7.9294,7.9309,7.9371,7.9439,7.943,7.9512,7.955,7.9627,7.9653,7.9715,7.9683,7.9715,7.9722,7.973,7.9738,7.952,7.9726,7.9725,7.9725,7.9725,7.9724,0,7.9189,7.9214,7.9279,7.9344,7.9399,7.9369,7.9417,7.9464,7.9537,7.9577,7.9631,7.9715,7.9781,7.9801,7.9864,7.991,7.9898,7.9926,7.9922,7.9927,7.9764,7.9738,7.9935,7.9935,7.9935,7.9935,7.9935,7.9935,7.9302,7.9405,7.9409,7.9528,7.9552,7.9633,7.9664,7.9702,7.9734,7.983,7.9885,7.9898,7.9929,7.9994,8.0053,8.0056,8.008,8.0115,8.0113,7.996,7.9938,7.9918,7.9894,8.012,8.012,8.027,8.0272,8.0273]}]]